| time (UTC) | temp C | wind direction | speed KPH | gust KPH | rain 1hr cm | rain 24hr cm | rain mn cm | humidity % | barometer mb |
| 20260509234835 | 30 | 136 | 4.8 | 11.3 | 0.00 | 0.28 | 0.28 | 43 | 1008.0 |
| 20260509234332 | 30 | 132 | 6.4 | 9.7 | 0.00 | 0.28 | 0.28 | 44 | 1007.9 |
| 20260509233830 | 30 | 123 | 6.4 | 9.7 | 0.00 | 0.28 | 0.28 | 43 | 1007.9 |
| 20260509233327 | 30 | 107 | 4.8 | 12.9 | 0.00 | 0.28 | 0.28 | 43 | 1008.3 |
| 20260509232822 | 30 | 128 | 11.3 | 14.5 | 0.00 | 0.28 | 0.28 | 44 | 1008.1 |
| 20260509232321 | 31 | 136 | 8.0 | 11.3 | 0.00 | 0.28 | 0.28 | 43 | 1008.1 |
| 20260509231816 | 31 | 98 | 4.8 | 9.7 | 0.00 | 0.28 | 0.28 | 44 | 1008.0 |
| 20260509231314 | 31 | 92 | 4.8 | 16.1 | 0.00 | 0.28 | 0.28 | 44 | 1008.0 |
| 20260509230812 | 31 | 89 | 6.4 | 9.7 | 0.00 | 0.28 | 0.28 | 45 | 1008.1 |
| 20260509230308 | 31 | 89 | 8.0 | 14.5 | 0.00 | 0.28 | 0.28 | 45 | 1008.3 |
| 20260509225803 | 31 | 105 | 6.4 | 9.7 | 0.00 | 0.28 | 0.28 | 44 | 1008.3 |
| 20260509225300 | 31 | 106 | 6.4 | 9.7 | 0.00 | 0.28 | 0.28 | 44 | 1008.1 |
| 20260509224756 | 31 | 88 | 8.0 | 9.7 | 0.00 | 0.28 | 0.28 | 42 | 1008.3 |
| 20260509224253 | 31 | 80 | 8.0 | 8.0 | 0.00 | 0.28 | 0.28 | 39 | 1008.1 |
| 20260509223749 | 32 | 71 | 4.8 | 9.7 | 0.00 | 0.28 | 0.28 | 38 | 1008.0 |
| 20260509223246 | 31 | 162 | 0.0 | 3.2 | 0.00 | 0.28 | 0.28 | 38 | 1008.1 |
| 20260509222743 | 31 | 111 | 6.4 | 12.9 | 0.00 | 0.28 | 0.28 | 40 | 1008.3 |
| 20260509222239 | 32 | 224 | 3.2 | 6.4 | 0.00 | 0.28 | 0.28 | 39 | 1008.3 |
| 20260509221734 | 31 | 170 | 3.2 | 8.0 | 0.00 | 0.28 | 0.28 | 39 | 1008.3 |
| 20260509221231 | 32 | 187 | 3.2 | 6.4 | 0.00 | 0.28 | 0.28 | 39 | 1008.5 |
| 20260509220727 | 32 | 142 | 4.8 | 9.7 | 0.00 | 0.28 | 0.28 | 39 | 1008.4 |
| 20260509220223 | 31 | 178 | 1.6 | 6.4 | 0.00 | 0.28 | 0.28 | 42 | 1008.3 |
| 20260509215719 | 32 | 116 | 8.0 | 8.0 | 0.00 | 0.28 | 0.28 | 41 | 1008.4 |
| 20260509215215 | 31 | 154 | 0.0 | 4.8 | 0.00 | 0.28 | 0.28 | 39 | 1008.5 |
| 20260509214713 | 31 | 119 | 3.2 | 6.4 | 0.00 | 0.28 | 0.28 | 39 | 1008.4 |
| 20260509214210 | 31 | 78 | 4.8 | 6.4 | 0.00 | 0.28 | 0.28 | 39 | 1008.5 |
| 20260509213707 | 32 | 83 | 6.4 | 9.7 | 0.00 | 0.28 | 0.28 | 38 | 1008.5 |
| 20260509213202 | 32 | 79 | 1.6 | 4.8 | 0.00 | 0.28 | 0.28 | 37 | 1008.4 |
| 20260509212700 | 32 | 20 | 3.2 | 6.4 | 0.00 | 0.28 | 0.28 | 41 | 1008.5 |
| 20260509212157 | 32 | 127 | 1.6 | 6.4 | 0.00 | 0.28 | 0.28 | 42 | 1008.8 |
| 20260509211653 | 32 | 130 | 0.0 | 3.2 | 0.00 | 0.28 | 0.28 | 39 | 1008.7 |
| 20260509211149 | 31 | 264 | 3.2 | 4.8 | 0.00 | 0.28 | 0.28 | 39 | 1008.8 |
| 20260509210647 | 31 | 170 | 8.0 | 16.1 | 0.00 | 0.28 | 0.28 | 39 | 1008.6 |
| 20260509210144 | 31 | 80 | 3.2 | 4.8 | 0.00 | 0.28 | 0.28 | 43 | 1009.1 |
| 20260509205639 | 31 | 132 | 4.8 | 6.4 | 0.00 | 0.28 | 0.28 | 41 | 1009.0 |
| 20260509205138 | 30 | 92 | 3.2 | 9.7 | 0.00 | 0.28 | 0.28 | 41 | 1009.0 |
| 20260509204635 | 31 | 104 | 3.2 | 8.0 | 0.00 | 0.28 | 0.28 | 41 | 1009.0 |
| 20260509204131 | 31 | 89 | 6.4 | 11.3 | 0.00 | 0.28 | 0.28 | 41 | 1009.2 |
| 20260509203627 | 31 | 78 | 8.0 | 8.0 | 0.00 | 0.28 | 0.28 | 41 | 1009.1 |
| 20260509203126 | 31 | 13 | 3.2 | 8.0 | 0.00 | 0.28 | 0.28 | 43 | 1009.2 |
| 20260509202626 | 31 | 69 | 3.2 | 9.7 | 0.00 | 0.28 | 0.28 | 42 | 1009.4 |
| 20260509202121 | 31 | 51 | 3.2 | 6.4 | 0.00 | 0.28 | 0.28 | 42 | 1009.6 |
| 20260509201616 | 31 | 123 | 1.6 | 6.4 | 0.00 | 0.28 | 0.28 | 44 | 1009.4 |
| 20260509201114 | 31 | 93 | 6.4 | 9.7 | 0.00 | 0.28 | 0.28 | 42 | 1009.6 |
| 20260509200609 | 30 | 88 | 3.2 | 6.4 | 0.00 | 0.28 | 0.28 | 43 | 1009.5 |
| 20260509200105 | 30 | 115 | 8.0 | 8.0 | 0.00 | 0.28 | 0.28 | 44 | 1009.6 |
| 20260509195601 | 31 | 48 | 1.6 | 6.4 | 0.00 | 0.28 | 0.28 | 43 | 1009.7 |
| 20260509195055 | 30 | 235 | 3.2 | 4.8 | 0.00 | 0.28 | 0.28 | 46 | 1009.7 |
| 20260509194555 | 30 | 352 | 3.2 | 6.4 | 0.00 | 0.28 | 0.28 | 45 | 1009.7 |
| 20260509194053 | 30 | 62 | 3.2 | 4.8 | 0.00 | 0.28 | 0.28 | 46 | 1009.9 |
| 20260509193548 | 30 | 148 | 0.0 | 8.0 | 0.00 | 0.28 | 0.28 | 45 | 1010.0 |
| 20260509193045 | 31 | 124 | 6.4 | 9.7 | 0.00 | 0.28 | 0.28 | 43 | 1010.1 |
| 20260509192542 | 30 | 82 | 1.6 | 6.4 | 0.00 | 0.28 | 0.28 | 45 | 1010.0 |
| 20260509192036 | 30 | 110 | 3.2 | 8.0 | 0.00 | 0.28 | 0.28 | 43 | 1010.1 |
| 20260509191531 | 30 | 156 | 4.8 | 8.0 | 0.00 | 0.28 | 0.28 | 47 | 1009.9 |
| 20260509191027 | 30 | 132 | 8.0 | 12.9 | 0.00 | 0.28 | 0.28 | 45 | 1010.2 |
| 20260509190524 | 30 | 128 | 1.6 | 4.8 | 0.00 | 0.28 | 0.28 | 45 | 1010.1 |
| 20260509190022 | 30 | 195 | 0.0 | 6.4 | 0.00 | 0.28 | 0.28 | 45 | 1010.3 |
| 20260509185519 | 30 | 204 | 0.0 | 3.2 | 0.00 | 0.28 | 0.28 | 44 | 1010.2 |
| 20260509185015 | 30 | 114 | 3.2 | 6.4 | 0.00 | 0.28 | 0.28 | 42 | 1010.2 |
| 20260509184514 | 30 | 162 | 0.0 | 3.2 | 0.00 | 0.28 | 0.28 | 49 | 1010.2 |
| 20260509184010 | 30 | 329 | 3.2 | 8.0 | 0.00 | 0.28 | 0.28 | 46 | 1010.4 |
| 20260509183505 | 30 | 99 | 3.2 | 8.0 | 0.00 | 0.28 | 0.28 | 44 | 1010.4 |
| 20260509183001 | 30 | 21 | 1.6 | 6.4 | 0.00 | 0.28 | 0.28 | 49 | 1010.6 |
| 20260509182458 | 29 | 57 | 3.2 | 8.0 | 0.00 | 0.28 | 0.28 | 51 | 1010.5 |
| 20260509181954 | 29 | 336 | 3.2 | 4.8 | 0.00 | 0.28 | 0.28 | 46 | 1010.7 |
| 20260509181453 | 28 | 249 | 6.4 | 9.7 | 0.00 | 0.28 | 0.28 | 48 | 1010.7 |
| 20260509180950 | 28 | 103 | 3.2 | 4.8 | 0.00 | 0.28 | 0.28 | 50 | 1010.9 |
| 20260509180445 | 29 | 257 | 6.4 | 11.3 | 0.00 | 0.28 | 0.28 | 50 | 1010.8 |
| 20260509175943 | 28 | 51 | 0.0 | 6.4 | 0.00 | 0.28 | 0.28 | 51 | 1010.9 |
| 20260509175439 | 28 | 343 | 6.4 | 6.4 | 0.00 | 0.28 | 0.28 | 49 | 1010.9 |
| 20260509174936 | 28 | 286 | 6.4 | 6.4 | 0.00 | 0.28 | 0.28 | 52 | 1010.8 |
| 20260509174432 | 28 | 286 | 6.4 | 9.7 | 0.00 | 0.28 | 0.28 | 52 | 1011.0 |
| 20260509173927 | 28 | 346 | 8.0 | 12.9 | 0.00 | 0.28 | 0.28 | 52 | 1011.0 |
| 20260509173427 | 28 | 289 | 1.6 | 4.8 | 0.00 | 0.28 | 0.28 | 53 | 1011.0 |
| 20260509172924 | 27 | 328 | 3.2 | 9.7 | 0.00 | 0.28 | 0.28 | 54 | 1011.1 |
| 20260509172421 | 27 | 322 | 6.4 | 8.0 | 0.00 | 0.28 | 0.28 | 53 | 1011.1 |
| 20260509171916 | 27 | 322 | 4.8 | 8.0 | 0.00 | 0.28 | 0.28 | 52 | 1011.3 |
| 20260509171413 | 27 | 305 | 4.8 | 9.7 | 0.00 | 0.28 | 0.28 | 52 | 1011.3 |
| 20260509170909 | 27 | 299 | 0.0 | 4.8 | 0.00 | 0.28 | 0.28 | 56 | 1011.3 |
| 20260509170404 | 27 | 269 | 6.4 | 8.0 | 0.00 | 0.28 | 0.28 | 56 | 1011.3 |
| 20260509165901 | 27 | 305 | 8.0 | 9.7 | 0.00 | 0.28 | 0.28 | 54 | 1011.3 |
| 20260509165355 | 27 | 350 | 3.2 | 9.7 | 0.00 | 0.28 | 0.28 | 55 | 1011.4 |
| 20260509164851 | 27 | 307 | 3.2 | 9.7 | 0.00 | 0.28 | 0.28 | 54 | 1011.3 |
| 20260509164347 | 27 | 294 | 6.4 | 9.7 | 0.00 | 0.28 | 0.28 | 56 | 1011.5 |
| 20260509163843 | 26 | 348 | 1.6 | 6.4 | 0.00 | 0.28 | 0.28 | 58 | 1011.5 |
| 20260509163340 | 26 | 340 | 4.8 | 9.7 | 0.00 | 0.28 | 0.28 | 57 | 1011.5 |
| 20260509162839 | 26 | 275 | 8.0 | 16.1 | 0.00 | 0.28 | 0.28 | 58 | 1011.6 |
| 20260509162338 | 26 | 287 | 11.3 | 16.1 | 0.00 | 0.28 | 0.28 | 57 | 1011.7 |
| 20260509161834 | 25 | 293 | 8.0 | 14.5 | 0.00 | 0.28 | 0.28 | 60 | 1011.7 |
| 20260509161331 | 25 | 269 | 3.2 | 11.3 | 0.00 | 0.28 | 0.28 | 59 | 1011.3 |
| 20260509160826 | 25 | 273 | 3.2 | 9.7 | 0.00 | 0.28 | 0.28 | 59 | 1011.6 |
| 20260509160322 | 25 | 256 | 8.0 | 16.1 | 0.00 | 0.28 | 0.28 | 62 | 1011.5 |
| 20260509155818 | 25 | 252 | 9.7 | 12.9 | 0.00 | 0.28 | 0.28 | 63 | 1011.6 |
| 20260509155315 | 25 | 329 | 4.8 | 14.5 | 0.00 | 0.28 | 0.28 | 63 | 1011.5 |
| 20260509154811 | 25 | 341 | 6.4 | 9.7 | 0.00 | 0.28 | 0.28 | 62 | 1011.4 |
| 20260509154308 | 25 | 308 | 4.8 | 12.9 | 0.00 | 0.28 | 0.28 | 62 | 1011.5 |
| 20260509153804 | 24 | 304 | 3.2 | 11.3 | 0.00 | 0.28 | 0.28 | 64 | 1011.5 |
| 20260509153301 | 23 | 355 | 8.0 | 11.3 | 0.00 | 0.28 | 0.28 | 62 | 1011.3 |
| 20260509152758 | 23 | 292 | 8.0 | 11.3 | 0.00 | 0.28 | 0.28 | 61 | 1011.3 |
| 20260509152253 | 23 | 280 | 8.0 | 9.7 | 0.00 | 0.28 | 0.28 | 64 | 1011.5 |
| 20260509151751 | 23 | 331 | 3.2 | 9.7 | 0.00 | 0.28 | 0.28 | 64 | 1011.6 |
| 20260509151247 | 23 | 230 | 8.0 | 9.7 | 0.00 | 0.28 | 0.28 | 64 | 1011.6 |
| 20260509150746 | 23 | 330 | 6.4 | 8.0 | 0.00 | 0.28 | 0.28 | 65 | 1011.6 |
| 20260509150244 | 23 | 328 | 3.2 | 8.0 | 0.00 | 0.28 | 0.28 | 66 | 1011.6 |
| 20260509145740 | 23 | 274 | 4.8 | 9.7 | 0.00 | 0.28 | 0.28 | 67 | 1011.5 |
| 20260509145240 | 22 | 18 | 4.8 | 8.0 | 0.00 | 0.28 | 0.28 | 69 | 1011.5 |
| 20260509144737 | 22 | 341 | 3.2 | 6.4 | 0.00 | 0.28 | 0.28 | 70 | 1011.7 |
| 20260509144234 | 23 | 298 | 6.4 | 11.3 | 0.00 | 0.28 | 0.28 | 68 | 1011.6 |
| 20260509143731 | 23 | 7 | 1.6 | 6.4 | 0.00 | 0.28 | 0.28 | 68 | 1011.6 |
| 20260509143228 | 23 | 345 | 4.8 | 8.0 | 0.00 | 0.28 | 0.28 | 72 | 1011.6 |
| 20260509142724 | 22 | 312 | 4.8 | 6.4 | 0.00 | 0.28 | 0.28 | 76 | 1011.7 |
| 20260509142221 | 22 | 343 | 8.0 | 9.7 | 0.00 | 0.28 | 0.28 | 78 | 1011.5 |
| 20260509141716 | 22 | 341 | 6.4 | 6.4 | 0.00 | 0.28 | 0.28 | 78 | 1011.7 |
| 20260509141214 | 22 | 29 | 8.0 | 8.0 | 0.00 | 0.28 | 0.28 | 79 | 1011.6 |
| 20260509140710 | 22 | 13 | 3.2 | 8.0 | 0.00 | 0.28 | 0.28 | 78 | 1011.8 |
| 20260509140208 | 21 | 92 | 3.2 | 6.4 | 0.00 | 0.28 | 0.28 | 80 | 1011.7 |
| 20260509135705 | 21 | 7 | 6.4 | 9.7 | 0.00 | 0.28 | 0.28 | 80 | 1011.7 |
| 20260509135203 | 21 | 98 | 3.2 | 6.4 | 0.00 | 0.28 | 0.28 | 80 | 1011.7 |
| 20260509134659 | 22 | 53 | 3.2 | 6.4 | 0.00 | 0.28 | 0.28 | 78 | 1011.7 |
| 20260509134157 | 21 | 35 | 3.2 | 6.4 | 0.00 | 0.28 | 0.28 | 79 | 1011.9 |
| 20260509133654 | 20 | 92 | 3.2 | 4.8 | 0.00 | 0.28 | 0.28 | 82 | 1011.9 |
| 20260509133151 | 20 | 98 | 4.8 | 6.4 | 0.00 | 0.28 | 0.28 | 81 | 1011.9 |
| 20260509132649 | 20 | 64 | 1.6 | 4.8 | 0.00 | 0.28 | 0.28 | 79 | 1011.8 |
| 20260509132147 | 20 | 75 | 1.6 | 4.8 | 0.00 | 0.28 | 0.28 | 80 | 1011.8 |
| 20260509131643 | 20 | 79 | 3.2 | 4.8 | 0.00 | 0.28 | 0.28 | 80 | 1011.8 |
| 20260509131140 | 20 | 49 | 3.2 | 3.2 | 0.00 | 0.28 | 0.28 | 82 | 1011.7 |
| 20260509130636 | 19 | 50 | 3.2 | 4.8 | 0.00 | 0.28 | 0.28 | 83 | 1011.8 |
| 20260509130132 | 19 | 98 | 1.6 | 4.8 | 0.00 | 0.28 | 0.28 | 83 | 1011.8 |
| 20260509125629 | 18 | 38 | 6.4 | 8.0 | 0.00 | 0.28 | 0.28 | 82 | 1011.7 |
| 20260509125126 | 18 | 59 | 0.0 | 3.2 | 0.00 | 0.28 | 0.28 | 86 | 1011.6 |
| 20260509124622 | 17 | 31 | 0.0 | 3.2 | 0.00 | 0.28 | 0.28 | 87 | 1011.5 |
| 20260509124119 | 17 | 57 | 3.2 | 3.2 | 0.00 | 0.28 | 0.28 | 87 | 1011.7 |
| 20260509123617 | 17 | 125 | 3.2 | 3.2 | 0.00 | 0.28 | 0.28 | 89 | 1011.9 |
| 20260509123114 | 17 | 118 | 0.0 | 3.2 | 0.00 | 0.28 | 0.28 | 89 | 1011.7 |
| 20260509122610 | 16 | 95 | 1.6 | 3.2 | 0.00 | 0.28 | 0.28 | 89 | 1011.6 |
| 20260509122107 | 16 | 147 | 1.6 | 3.2 | 0.00 | 0.28 | 0.28 | 89 | 1011.7 |
| 20260509121603 | 16 | 203 | 0.0 | 0.0 | 0.00 | 0.28 | 0.28 | 87 | 1011.4 |
| 20260509121101 | 17 | 137 | 0.0 | 3.2 | 0.00 | 0.28 | 0.28 | 86 | 1011.4 |
| 20260509120559 | 17 | 153 | 4.8 | 6.4 | 0.00 | 0.28 | 0.28 | 87 | 1011.1 |
| 20260509120057 | 17 | 150 | 4.8 | 4.8 | 0.00 | 0.28 | 0.28 | 87 | 1011.0 |
| 20260509115554 | 17 | 162 | 3.2 | 4.8 | 0.00 | 0.28 | 0.28 | 88 | 1010.8 |
| 20260509115052 | 17 | 143 | 0.0 | 3.2 | 0.00 | 0.28 | 0.28 | 87 | 1011.0 |
| 20260509114550 | 17 | 186 | 3.2 | 3.2 | 0.00 | 0.28 | 0.28 | 87 | 1010.8 |
| 20260509114048 | 17 | 191 | 0.0 | 1.6 | 0.00 | 0.28 | 0.28 | 87 | 1010.7 |
| 20260509113546 | 17 | 199 | 0.0 | 3.2 | 0.00 | 0.28 | 0.28 | 87 | 1010.4 |
| 20260509113044 | 17 | 177 | 3.2 | 3.2 | 0.00 | 0.28 | 0.28 | 86 | 1010.3 |
| 20260509112540 | 17 | 230 | 0.0 | 3.2 | 0.00 | 0.28 | 0.28 | 86 | 1010.2 |
| 20260509112037 | 17 | 150 | 0.0 | 3.2 | 0.00 | 0.28 | 0.28 | 85 | 1010.0 |
| 20260509111534 | 17 | 6 | 3.2 | 3.2 | 0.00 | 0.28 | 0.28 | 85 | 1010.0 |
| 20260509111031 | 17 | 10 | 1.6 | 4.8 | 0.00 | 0.28 | 0.28 | 85 | 1009.8 |
| 20260509110527 | 17 | 240 | 0.0 | 3.2 | 0.00 | 0.28 | 0.28 | 84 | 1010.0 |
| 20260509110025 | 17 | 20 | 4.8 | 8.0 | 0.00 | 0.28 | 0.28 | 84 | 1009.7 |
| 20260509105523 | 17 | 40 | 3.2 | 4.8 | 0.00 | 0.28 | 0.28 | 86 | 1009.8 |
| 20260509105020 | 16 | 67 | 3.2 | 4.8 | 0.00 | 0.28 | 0.28 | 88 | 1009.8 |
| 20260509104517 | 17 | 166 | 3.2 | 3.2 | 0.00 | 0.28 | 0.28 | 86 | 1009.9 |
| 20260509104014 | 17 | 122 | 3.2 | 3.2 | 0.00 | 0.28 | 0.28 | 84 | 1009.8 |
| 20260509103512 | 17 | 92 | 6.4 | 6.4 | 0.00 | 0.28 | 0.28 | 85 | 1009.8 |
| 20260509103010 | 17 | 91 | 4.8 | 6.4 | 0.00 | 0.28 | 0.28 | 87 | 1010.0 |
| 20260509102507 | 17 | 35 | 0.0 | 1.6 | 0.00 | 0.28 | 0.28 | 85 | 1010.2 |
| 20260509102003 | 17 | 89 | 4.8 | 8.0 | 0.00 | 0.28 | 0.28 | 85 | 1010.1 |
| 20260509101500 | 17 | 95 | 6.4 | 8.0 | 0.00 | 0.28 | 0.28 | 87 | 1010.0 |
| 20260509100957 | 17 | 214 | 0.0 | 3.2 | 0.00 | 0.28 | 0.28 | 87 | 1010.3 |
| 20260509100454 | 17 | 110 | 1.6 | 3.2 | 0.00 | 0.28 | 0.28 | 87 | 1010.3 |
| 20260509095951 | 17 | 102 | 4.8 | 9.7 | 0.00 | 0.28 | 0.28 | 86 | 1010.4 |
| 20260509095448 | 17 | 93 | 3.2 | 6.4 | 0.00 | 0.28 | 0.28 | 86 | 1010.3 |
| 20260509094945 | 17 | 92 | 4.8 | 8.0 | 0.00 | 0.28 | 0.28 | 85 | 1010.4 |
| 20260509094441 | 17 | 92 | 3.2 | 3.2 | 0.00 | 0.28 | 0.28 | 84 | 1010.4 |
| 20260509093939 | 17 | 60 | 3.2 | 3.2 | 0.00 | 0.28 | 0.28 | 84 | 1010.4 |
| 20260509093436 | 17 | 310 | 1.6 | 9.7 | 0.00 | 0.28 | 0.28 | 83 | 1010.3 |
| 20260509092934 | 17 | 301 | 6.4 | 12.9 | 0.00 | 0.28 | 0.28 | 83 | 1010.5 |
| 20260509092432 | 18 | 254 | 8.0 | 14.5 | 0.00 | 0.28 | 0.28 | 82 | 1009.8 |
| 20260509091931 | 18 | 256 | 17.7 | 25.7 | 0.00 | 0.28 | 0.28 | 80 | 1010.1 |
| 20260509091427 | 18 | 268 | 8.0 | 20.9 | 0.00 | 0.28 | 0.28 | 81 | 1009.6 |
| 20260509090924 | 18 | 19 | 3.2 | 17.7 | 0.00 | 0.28 | 0.28 | 79 | 1009.3 |
| 20260509090421 | 17 | 337 | 6.4 | 17.7 | 0.00 | 0.28 | 0.28 | 81 | 1007.9 |
| 20260509085919 | 17 | 191 | 6.4 | 17.7 | 0.00 | 0.28 | 0.28 | 82 | 1006.7 |
| 20260509085416 | 17 | 197 | 4.8 | 9.7 | 0.00 | 0.28 | 0.28 | 80 | 1006.1 |
| 20260509084912 | 17 | 156 | 6.4 | 12.9 | 0.00 | 0.28 | 0.28 | 78 | 1006.0 |
| 20260509084409 | 17 | 136 | 6.4 | 16.1 | 0.00 | 0.28 | 0.28 | 78 | 1006.2 |
| 20260509083906 | 17 | 157 | 6.4 | 14.5 | 0.00 | 0.28 | 0.28 | 78 | 1006.7 |
| 20260509083403 | 17 | 154 | 9.7 | 12.9 | 0.00 | 0.28 | 0.28 | 78 | 1006.5 |
| 20260509082900 | 17 | 119 | 1.6 | 8.0 | 0.00 | 0.28 | 0.28 | 76 | 1007.0 |
| 20260509082357 | 18 | 204 | 4.8 | 11.3 | 0.00 | 0.28 | 0.28 | 76 | 1007.8 |
| 20260509081854 | 18 | 77 | 3.2 | 6.4 | 0.00 | 0.28 | 0.28 | 73 | 1008.6 |
| 20260509081351 | 19 | 130 | 6.4 | 9.7 | 0.00 | 0.28 | 0.28 | 71 | 1008.6 |
| 20260509080849 | 20 | 260 | 4.8 | 16.1 | 0.00 | 0.28 | 0.28 | 66 | 1009.0 |
| 20260509080347 | 20 | 303 | 9.7 | 11.3 | 0.00 | 0.28 | 0.28 | 62 | 1008.9 |
| 20260509075844 | 18 | 355 | 1.6 | 4.8 | 0.00 | 0.28 | 0.28 | 76 | 1008.9 |
| 20260509075341 | 19 | 265 | 9.7 | 9.7 | 0.00 | 0.28 | 0.28 | 75 | 1008.8 |
| 20260509074838 | 18 | 93 | 3.2 | 4.8 | 0.00 | 0.28 | 0.28 | 73 | 1008.9 |
| 20260509074336 | 18 | 108 | 6.4 | 6.4 | 0.00 | 0.28 | 0.28 | 78 | 1008.7 |
| 20260509073832 | 19 | 275 | 6.4 | 9.7 | 0.00 | 0.28 | 0.28 | 79 | 1009.1 |
| 20260509073329 | 17 | 108 | 0.0 | 6.4 | 0.00 | 0.28 | 0.28 | 88 | 1009.3 |
| 20260509072825 | 18 | 214 | 3.2 | 3.2 | 0.00 | 0.28 | 0.28 | 83 | 1009.3 |
| 20260509072322 | 18 | 106 | 6.4 | 11.3 | 0.00 | 0.28 | 0.28 | 79 | 1009.6 |
| 20260509071819 | 18 | 99 | 4.8 | 8.0 | 0.00 | 0.28 | 0.28 | 81 | 1009.7 |
| 20260509071316 | 20 | 267 | 4.8 | 4.8 | 0.00 | 0.28 | 0.28 | 74 | 1010.2 |
| 20260509070813 | 20 | 123 | 9.7 | 12.9 | 0.00 | 0.28 | 0.28 | 65 | 1010.5 |
| 20260509070309 | 18 | 115 | 6.4 | 8.0 | 0.00 | 0.28 | 0.28 | 74 | 1010.8 |
| 20260509065806 | 17 | 128 | 3.2 | 4.8 | 0.05 | 0.28 | 0.28 | 80 | 1011.7 |
| 20260509065305 | 17 | 83 | 1.6 | 4.8 | 0.18 | 0.28 | 0.28 | 81 | 1012.0 |
| 20260509064758 | 17 | 112 | 1.6 | 3.2 | 0.43 | 0.28 | 0.28 | 84 | 1012.2 |
| 20260509064256 | 17 | 234 | 1.6 | 6.4 | 0.43 | 0.23 | 0.23 | 85 | 1012.4 |
| 20260509063753 | 17 | 105 | 3.2 | 4.8 | 0.43 | 0.20 | 0.20 | 85 | 1012.8 |
| 20260509063249 | 17 | 298 | 6.4 | 14.5 | 1.02 | 0.18 | 0.18 | 82 | 1013.3 |
| 20260509062747 | 18 | 322 | 12.9 | 22.5 | 0.66 | 0.10 | 0.10 | 79 | 1013.4 |
| 20260509062244 | 20 | 328 | 19.3 | 29.0 | 0.00 | 0.00 | 0.00 | 81 | 1013.3 |
| 20260509061740 | 20 | 317 | 11.3 | 20.9 | 0.00 | 0.00 | 0.00 | 87 | 1013.3 |
| 20260509061239 | 20 | 292 | 11.3 | 20.9 | 0.00 | 0.00 | 0.00 | 92 | 1013.2 |
| 20260509060736 | 20 | 314 | 4.8 | 9.7 | 0.00 | 0.00 | 0.00 | 94 | 1013.1 |
| 20260509060232 | 20 | 357 | 3.2 | 8.0 | 0.00 | 0.00 | 0.00 | 94 | 1012.9 |
| 20260509055727 | 20 | 340 | 3.2 | 6.4 | 0.00 | 0.00 | 0.00 | 94 | 1012.5 |
| 20260509055224 | 20 | 340 | 6.4 | 6.4 | 0.00 | 0.00 | 0.00 | 94 | 1012.3 |
| 20260509054720 | 20 | 243 | 0.0 | 6.4 | 0.00 | 0.00 | 0.00 | 94 | 1012.0 |
| 20260509054218 | 20 | 75 | 3.2 | 3.2 | 0.00 | 0.00 | 0.00 | 94 | 1012.0 |
| 20260509053716 | 20 | 47 | 4.8 | 6.4 | 0.00 | 0.00 | 0.00 | 95 | 1012.4 |
| 20260509053212 | 20 | 42 | 6.4 | 12.9 | 0.00 | 0.00 | 0.00 | 95 | 1012.4 |
| 20260509052710 | 19 | 47 | 3.2 | 6.4 | 0.00 | 0.00 | 0.00 | 95 | 1012.1 |
| 20260509052208 | 19 | 38 | 6.4 | 9.7 | 0.00 | 0.00 | 0.00 | 94 | 1012.1 |
| 20260509051705 | 19 | 60 | 6.4 | 6.4 | 0.00 | 0.00 | 0.00 | 94 | 1011.7 |
| 20260509051203 | 19 | 52 | 4.8 | 8.0 | 0.00 | 0.00 | 0.00 | 94 | 1011.8 |
| 20260509050700 | 19 | 72 | 3.2 | 9.7 | 0.00 | 0.00 | 0.00 | 94 | 1011.7 |
| 20260509050156 | 19 | 76 | 3.2 | 3.2 | 0.00 | 0.00 | 0.00 | 94 | 1011.1 |
| 20260509045654 | 20 | 120 | 6.4 | 8.0 | 0.00 | 0.28 | 0.28 | 94 | 1010.8 |
| 20260509045150 | 19 | 138 | 6.4 | 8.0 | 0.00 | 0.28 | 0.28 | 93 | 1010.7 |
| 20260509044647 | 20 | 137 | 4.8 | 6.4 | 0.00 | 0.28 | 0.28 | 93 | 1010.6 |
| 20260509044145 | 20 | 113 | 6.4 | 6.4 | 0.00 | 0.28 | 0.28 | 93 | 1010.4 |
| 20260509043641 | 20 | 119 | 4.8 | 6.4 | 0.00 | 0.28 | 0.28 | 92 | 1010.8 |
| 20260509043137 | 20 | 101 | 4.8 | 6.4 | 0.00 | 0.28 | 0.28 | 92 | 1010.7 |
| 20260509042634 | 20 | 96 | 4.8 | 6.4 | 0.00 | 0.28 | 0.28 | 92 | 1010.7 |
| 20260509042129 | 20 | 124 | 3.2 | 8.0 | 0.00 | 0.28 | 0.28 | 92 | 1010.7 |
| 20260509041626 | 20 | 115 | 8.0 | 9.7 | 0.00 | 0.28 | 0.28 | 91 | 1010.2 |
| 20260509041124 | 20 | 105 | 4.8 | 8.0 | 0.00 | 0.28 | 0.28 | 90 | 1010.4 |
| 20260509040622 | 20 | 83 | 8.0 | 11.3 | 0.00 | 0.28 | 0.28 | 90 | 1010.7 |
| 20260509040119 | 20 | 107 | 3.2 | 8.0 | 0.00 | 0.28 | 0.28 | 90 | 1010.2 |
| 20260509035615 | 20 | 134 | 9.7 | 9.7 | 0.00 | 0.28 | 0.28 | 90 | 1010.3 |
| 20260509035112 | 20 | 116 | 8.0 | 11.3 | 0.00 | 0.28 | 0.28 | 89 | 1009.9 |
| 20260509034610 | 20 | 142 | 6.4 | 9.7 | 0.00 | 0.28 | 0.28 | 89 | 1009.8 |
| 20260509034107 | 20 | 148 | 3.2 | 8.0 | 0.00 | 0.28 | 0.28 | 89 | 1009.6 |
| 20260509033604 | 20 | 123 | 6.4 | 9.7 | 0.00 | 0.28 | 0.28 | 89 | 1009.7 |
| 20260509033101 | 20 | 122 | 6.4 | 11.3 | 0.00 | 0.28 | 0.28 | 88 | 1009.7 |
| 20260509032558 | 21 | 151 | 6.4 | 12.9 | 0.00 | 0.28 | 0.28 | 88 | 1009.5 |
| 20260509032055 | 21 | 133 | 4.8 | 9.7 | 0.00 | 0.28 | 0.28 | 88 | 1009.6 |
| 20260509031553 | 21 | 120 | 3.2 | 9.7 | 0.00 | 0.28 | 0.28 | 88 | 1009.5 |
| 20260509031050 | 21 | 106 | 6.4 | 11.3 | 0.00 | 0.28 | 0.28 | 87 | 1009.3 |
| 20260509030548 | 21 | 129 | 9.7 | 17.7 | 0.00 | 0.28 | 0.28 | 87 | 1009.2 |
| 20260509030045 | 21 | 169 | 4.8 | 9.7 | 0.00 | 0.28 | 0.28 | 87 | 1008.9 |
| 20260509025541 | 21 | 159 | 4.8 | 14.5 | 0.00 | 0.28 | 0.28 | 87 | 1008.9 |
| 20260509025036 | 21 | 123 | 9.7 | 14.5 | 0.00 | 0.28 | 0.28 | 87 | 1008.7 |
| 20260509024532 | 21 | 132 | 12.9 | 14.5 | 0.00 | 0.28 | 0.28 | 87 | 1008.6 |
| 20260509024029 | 21 | 101 | 6.4 | 9.7 | 0.00 | 0.28 | 0.28 | 86 | 1008.3 |
| 20260509023527 | 21 | 139 | 6.4 | 16.1 | 0.00 | 0.28 | 0.28 | 86 | 1008.4 |
| 20260509023023 | 21 | 132 | 4.8 | 12.9 | 0.00 | 0.28 | 0.28 | 86 | 1008.6 |
| 20260509022520 | 21 | 120 | 14.5 | 14.5 | 0.00 | 0.28 | 0.28 | 86 | 1008.6 |
| 20260509022018 | 21 | 106 | 3.2 | 9.7 | 0.00 | 0.28 | 0.28 | 86 | 1008.3 |
| 20260509021514 | 21 | 150 | 8.0 | 12.9 | 0.00 | 0.28 | 0.28 | 86 | 1008.5 |
| 20260509021011 | 21 | 131 | 9.7 | 12.9 | 0.00 | 0.28 | 0.28 | 86 | 1008.3 |
| 20260509020510 | 21 | 116 | 4.8 | 9.7 | 0.00 | 0.28 | 0.28 | 86 | 1008.4 |
| 20260509020006 | 21 | 110 | 4.8 | 9.7 | 0.00 | 0.28 | 0.28 | 85 | 1008.6 |
| 20260509015505 | 21 | 136 | 11.3 | 14.5 | 0.00 | 0.28 | 0.28 | 85 | 1008.4 |
| 20260509015002 | 21 | 134 | 6.4 | 9.7 | 0.00 | 0.28 | 0.28 | 85 | 1008.6 |
| 20260509014459 | 21 | 145 | 8.0 | 11.3 | 0.00 | 0.28 | 0.28 | 84 | 1008.5 |
| 20260509013954 | 21 | 118 | 6.4 | 9.7 | 0.00 | 0.28 | 0.28 | 84 | 1008.5 |
| 20260509013452 | 21 | 139 | 8.0 | 9.7 | 0.00 | 0.28 | 0.28 | 83 | 1008.5 |
| 20260509012947 | 21 | 114 | 6.4 | 9.7 | 0.00 | 0.28 | 0.28 | 83 | 1008.6 |
| 20260509012444 | 21 | 128 | 8.0 | 9.7 | 0.00 | 0.28 | 0.28 | 82 | 1008.5 |
| 20260509011941 | 21 | 129 | 8.0 | 9.7 | 0.00 | 0.28 | 0.28 | 82 | 1008.5 |
| 20260509011439 | 21 | 149 | 3.2 | 11.3 | 0.00 | 0.28 | 0.28 | 81 | 1008.6 |
| 20260509010936 | 21 | 114 | 6.4 | 9.7 | 0.00 | 0.28 | 0.28 | 81 | 1008.4 |
| 20260509010434 | 22 | 121 | 9.7 | 9.7 | 0.00 | 0.28 | 0.28 | 80 | 1008.5 |
| 20260509005931 | 22 | 131 | 6.4 | 9.7 | 0.00 | 0.28 | 0.28 | 80 | 1008.3 |
| 20260509005429 | 22 | 133 | 9.7 | 9.7 | 0.00 | 0.28 | 0.28 | 79 | 1008.3 |
| 20260509004928 | 22 | 141 | 6.4 | 16.1 | 0.00 | 0.28 | 0.28 | 79 | 1008.1 |
| 20260509004425 | 22 | 114 | 9.7 | 11.3 | 0.00 | 0.28 | 0.28 | 78 | 1008.3 |
| 20260509003923 | 22 | 117 | 6.4 | 9.7 | 0.00 | 0.28 | 0.28 | 78 | 1008.0 |
| 20260509003421 | 22 | 127 | 8.0 | 9.7 | 0.00 | 0.28 | 0.28 | 78 | 1007.9 |
| 20260509002917 | 22 | 85 | 4.8 | 9.7 | 0.00 | 0.28 | 0.28 | 77 | 1007.9 |
| 20260509002416 | 22 | 168 | 4.8 | 12.9 | 0.00 | 0.28 | 0.28 | 77 | 1007.9 |
| 20260509001912 | 22 | 136 | 6.4 | 9.7 | 0.00 | 0.28 | 0.28 | 77 | 1008.1 |
| 20260509001408 | 22 | 127 | 6.4 | 14.5 | 0.00 | 0.28 | 0.28 | 76 | 1008.3 |
| 20260509000906 | 22 | 154 | 6.4 | 11.3 | 0.00 | 0.28 | 0.28 | 76 | 1008.1 |
| 20260509000404 | 22 | 160 | 9.7 | 14.5 | 0.00 | 0.28 | 0.28 | 75 | 1008.5 |
| 20260508235859 | 23 | 199 | 3.2 | 9.7 | 0.00 | 0.28 | 0.28 | 75 | 1008.5 |
| 20260508235357 | 23 | 97 | 6.4 | 14.5 | 0.00 | 0.28 | 0.28 | 74 | 1008.6 |